Flag for U.S.A. Weather past 2 weeks in Livonia, Michigan, U.S.A.

Now
49 °F

Passing clouds.


Feels Like: 47 °F
Forecast: 48 / 76 °F
Wind: 5 mph from South

Location: Detroit Metropolitan Wayne County Airport


UV Index: 0 (Low)

Visibility: 10 mi


Pressure: 30.11 "Hg

Humidity: 59%

Dew point: 35 °F

Location of LivoniaLocation

Historic Weather in Livonia

°F

Livonia temperature yesterday

Maximum temperature yesterday: 71 °F (at 3:53 PM)
Minimum temperature yesterday: 37 °F (at 6:53 AM)
Average temperature yesterday: 54 °F

Past Weeks' High & Low Weather Summary

 TemperatureHumidityPressure
High78 °F (Apr 13, 3:53 PM)93% (Apr 15, 2:00 AM)30.49 "Hg (Apr 15, 2:00 AM)
Low23 °F (Apr 16, 6:53 AM)17% (Apr 11, 3:53 PM)29.44 "Hg (Apr 14, 6:53 AM)
Average49 °F56%30.02 "Hg
* Reported Apr 6 12:53 AM — Apr 21 12:53 AM, Livonia, Weather by CustomWeather, © 2014

Note: Actual official high and low records may vary slightly from our data, if they occured in-between our weather recording intervals... More about our weather records

Advertising

Historic Weather Conditions — Data for Previous 24 hours

 ConditionsComfort  
Time TempWeatherWind HumidityBarometerVisibility
12:53 AM
Apr 21
49 °FPassing clouds.5 mph59%30.11 "Hg10 mi
11:53 PM
Apr 20
50 °FPassing clouds.6 mph57%30.12 "Hg10 mi
10:53 PM51 °FPassing clouds.6 mph52%30.14 "Hg10 mi
9:53 PM55 °FPartly cloudy.6 mph49%30.14 "Hg10 mi
8:53 PM58 °FPartly sunny.8 mph46%30.14 "Hg10 mi
7:53 PM64 °FMore clouds than sun.9 mph37%30.14 "Hg10 mi
6:53 PM69 °FPartly sunny.10 mph26%30.15 "Hg10 mi
5:53 PM71 °FPartly sunny.9 mph27%30.16 "Hg10 mi
4:53 PM71 °FPartly sunny.7 mph24%30.17 "Hg10 mi
3:53 PM71 °FPartly sunny.6 mph23%30.19 "Hg10 mi
2:53 PM69 °FPartly sunny.No wind22%30.22 "Hg10 mi
1:53 PM67 °FPartly sunny.5 mph23%30.24 "Hg10 mi
12:53 PM65 °FPartly sunny.3 mph27%30.27 "Hg10 mi
11:53 AM62 °FPartly sunny.7 mph34%30.28 "Hg10 mi
10:53 AM55 °FPartly sunny.5 mph47%30.31 "Hg10 mi
9:53 AM50 °FPartly sunny.No wind54%30.32 "Hg10 mi
8:53 AM45 °FPartly sunny.No wind63%30.34 "Hg10 mi
7:53 AM41 °FPartly sunny.3 mph74%30.34 "Hg7 mi
6:53 AM37 °FPassing clouds.No wind73%30.33 "Hg8 mi
5:53 AM38 °FPassing clouds.No wind70%30.33 "Hg10 mi
4:53 AM39 °FPassing clouds.No wind67%30.34 "Hg10 mi
3:53 AM40 °FPassing clouds.No wind65%30.34 "Hg10 mi
2:53 AM41 °FPassing clouds.No wind60%30.34 "Hg10 mi
Weather by CustomWeather, © 2014

See weather overview